Cloud_Cover
0 0 4 88 5 0 54 47 96 100 100 100 90 4 0 5 17 85 55 42 5 0 0 1 1 5 5 11 28 32 47 55 100 100 97 6 1 11 100 100 99 100 100 100
0 16 19 5 4 6 38 100 100 100 100 100 100 74 5 5 41 16 61 88 3 0 5 5 0 0 0 4 8 3 7 5 5 65 99 37 99 100 100 100 100 100 100 100
27 5 6 0 0 4 71 82 67 13 52 77 27 7 4 5 5 4 40 43 4 3 1 5 14 76 36 1 44 30 23 49 38 99 100 100 100 100 100 100 95 100 100 100
100 96 12 1 0 3 1 3 5 5 14 5 0 0 2 0 0 0 0 14 31 6 2 5 5 6 36 4 0 4 4 1 4 2 30 50 5 32 52 26 5 7 3 5
72 24 5 54 86 3 21 36 60 92 57 9 5 0 0 0 0 0 0 0 9 5 3 0 4 1 0 0 0 0 0 0 0 0 4 3 0 0 0 0 0 5 83 27
5 5 11 0 21 100 100 100 98 66 52 64 4 0 0 0 0 0 0 0 3 3 0 5 5 0 0 0 0 0 0 0 0 0 0 0 0 0 0 0 0 0 0 2
5 4 4 98 70 89 90 95 50 100 38 44 1 0 8 2 6 7 3 4 60 10 9 7 1 0 0 0 0 0 0 0 0 0 0 0 0 0 0 0 0 0 0 2
98 23 45 73 72 62 48 18 7 3 66 100 4 4 38 93 55 10 75 75 51 99 33 5 4 4 0 0 0 0 0 0 0 0 0 0 0 0 0 0 0 0 0 3
70 100 17 98 40 5 15 5 33 93 20 100 99 62 70 74 100 97 100 53 41 13 4 0 0 0 0 0 0 0 0 0 0 0 0 0 0 0 0 0 0 0 0 0
100 100 100 89 11 84 99 34 100 24 5 100 92 44 54 97 81 100 93 100 3 0 0 0 0 0 0 0 0 0 0 0 0 0 0 0 0 0 0 53 6 0 0 0
46 100 100 100 74 67 95 55 80 10 0 27 100 77 95 68 90 56 4 0 0 0 0 0 0 0 0 0 0 0 0 0 0 0 0 0 1 5 0 0 19 0 0 0
5 3 7 47 71 28 87 69 17 0 1 93 91 100 77 6 60 44 19 0 0 0 0 0 0 0 0 0 0 0 0 0 0 0 0 0 0 6 94 96 100 100 94 54
0 5 1 0 0 1 2 3 0 0 53 100 90 99 5 100 99 61 100 5 3 0 0 0 0 0 0 0 0 0 0 0 0 0 0 59 83 0 1 36 100 100 100 100
4 5 3 0 0 0 4 0 0 54 100 100 71 100 100 98 20 100 68 100 98 23 0 0 0 0 0 0 0 0 0 17 0 0 0 0 68 76 98 1 0 0 76 95
90 50 7 63 60 47 18 0 41 100 100 100 100 96 90 96 100 100 100 94 81 0 0 0 0 0 0 0 0 0 0 0 0 0 0 30 34 27 52 18 36 71 9 100
12 23 100 29 5 3 8 6 98 100 100 100 100 76 97 22 94 100 100 9 91 24 0 0 0 0 0 0 0 0 0 0 0 0 0 0 13 2 100 100 100 50 5 77
6 74 85 1 2 58 100 5 7 100 100 100 100 100 100 100 82 100 100 89 100 2 0 0 0 0 0 0 0 0 0 0 0 0 0 0 5 0 45 40 5 5 4 5
1 75 12 5 8 46 93 90 64 100 100 100 100 100 100 100 100 100 100 100 100 0 0 0 0 0 0 0 0 0 0 0 0 0 0 0 0 50 100 7 3 0 2 12
0 0 0 0 1 2 100 100 100 100 100 27 44 98 100 100 76 22 100 100 37 0 0 0 0 0 0 0 0 0 0 0 0 0 0 0 0 7 30 14 5 5 5 5
0 0 0 0 0 1 99 100 100 100 100 100 100 99 92 8 49 100 77 10 0 0 0 0 0 0 0 0 0 0 0 0 0 0 0 0 0 5 12 5 5 5 3 5
2 0 0 0 0 0 0 26 70 97 100 100 100 99 97 78 6 3 0 0 0 0 0 0 0 0 0 0 0 0 0 0 0 0 0 0 0 3 2 4 5 5 0 4
2 0 0 0 0 0 0 0 0 0 0 0 0 0 0 0 0 0 0 0 0 0 0 0 0 0 0 0 0 0 0 0 0 0 0 0 0 0 0 0 5 4 0 3
0 0 0 0 0 0 0 0 0 0 0 0 0 0 0 0 0 0 0 0 0 0 0 0 0 0 0 0 0 0 0 0 0 0 0 0 0 0 0 0 0 3 0 5
4 0 0 0 0 0 0 0 0 0 0 0 0 0 0 0 0 0 0 0 0 0 0 0 0 0 0 0 0 0 0 0 0 0 0 0 0 0 0 0 3 0 2 5
5 0 0 0 0 0 0 0 0 0 0 0 0 0 0 0 0 0 0 0 0 0 0 0 0 0 0 0 0 0 0 0 0 0 0 0 0 0 0 0 2 5 5 5
5 5 0 0 0 0 0 0 0 0 0 0 0 0 0 0 0 0 0 0 0 0 0 0 0 0 0 0 0 0 0 0 0 0 0 2 0 0 0 0 0 5 2 5
32 96 88 23 0 0 0 0 0 0 0 0 0 0 0 0 0 0 0 0 0 0 0 0 0 0 0 0 0 0 0 0 0 0 4 17 13 3 1 0 0 1 3 5